�N����,����,����,����,����,�C��,���x,�~����,�S�V����,�ő�u�ԕ���,,,,,
,,,,,,,,,����,����,����,�N��,,
yyyy/mm/dd,hh:mm:ss,(16),16����,m/s,��,%,mm,KW/�u,(16),16����,m/s,Time,,
2016/8/1,1:00:00,7,��쓌,1,19,100,0,0,8,��,5.2,13,,
2016/8/1,2:00:00,9,��쐼,1.1,18.9,100,0,0,8,��,3.1,29,,
2016/8/1,3:00:00,8,��,1.2,19.2,100,0,0,9,��쐼,2.5,52,,
2016/8/1,4:00:00,5,���쓌,0.8,18.8,100,0,0,9,��쐼,2,1,,
2016/8/1,5:00:00,16,�É�,0.2,18.7,100,0,0.01,4,��,1.8,10,,
2016/8/1,6:00:00,16,�É�,0.1,19,100,0,0.05,7,��쓌,1,45,,
2016/8/1,7:00:00,3,���k��,0.3,20,100,0,0.12,15,�k�k��,1.2,26,,
2016/8/1,8:00:00,4,��,1,21.1,100,0,0.25,4,��,1.9,49,,
2016/8/1,9:00:00,5,���쓌,1.7,21.1,99.7,0,0.28,6,�쓌,2.5,59,,
2016/8/1,10:00:00,4,��,2.2,20.5,99.5,0.5,0.26,4,��,2.9,53,,
2016/8/1,11:00:00,4,��,1.7,20.8,99.8,0,0.25,4,��,2.8,49,,
2016/8/1,12:00:00,3,���k��,2.5,20.4,100,6,0.15,4,��,3.8,45,,
2016/8/1,13:00:00,4,��,2.4,21.2,99.9,3,0.14,4,��,3.5,59,,
2016/8/1,14:00:00,4,��,2.2,21.4,99.9,0.5,0.2,5,���쓌,3.3,9,,
2016/8/1,15:00:00,5,���쓌,1.5,22,99.8,0,0.31,4,��,3,18,,
2016/8/1,16:00:00,5,���쓌,2.2,21.5,99.5,0,0.21,5,���쓌,3.5,46,,
2016/8/1,17:00:00,5,���쓌,1.9,21.2,99.5,0,0.16,5,���쓌,3.2,17,,
2016/8/1,18:00:00,4,��,1.5,20.7,99.9,0,0.05,4,��,2.4,43,,
2016/8/1,19:00:00,3,���k��,0.9,20.6,100,0,0.01,2,�k��,2.4,24,,
2016/8/1,20:00:00,2,�k��,1.5,20.9,100,0,0,2,�k��,2.5,57,,
2016/8/1,21:00:00,3,���k��,1.6,21,100,0,0,3,���k��,2.5,6,,
2016/8/1,22:00:00,2,�k��,1.8,21,100,0.5,0,2,�k��,2.6,56,,
2016/8/1,23:00:00,2,�k��,1.9,21,100,0,0,1,�k�k��,3.4,48,,
2016/8/1,0:00:00,2,�k��,1.9,20.9,100,1,0,2,�k��,3.3,7,,
2016/8/2,1:00:00,2,�k��,1.5,20.9,100,0.5,0,3,���k��,2.5,58,,
2016/8/2,2:00:00,2,�k��,2.6,20.3,100,0.5,0,3,���k��,4.8,41,,
2016/8/2,3:00:00,2,�k��,1.4,20.7,100,0,0,2,�k��,3.2,34,,
2016/8/2,4:00:00,1,�k�k��,1.7,20.7,100,0,0,1,�k�k��,3.6,43,,
2016/8/2,5:00:00,15,�k�k��,1.3,21.1,100,0,0.01,1,�k�k��,2.7,1,,
2016/8/2,6:00:00,15,�k�k��,0.8,21.4,100,0,0.03,15,�k�k��,2.5,52,,
2016/8/2,7:00:00,14,�k��,1.5,21.9,99.3,0,0.08,14,�k��,3,9,,
2016/8/2,8:00:00,14,�k��,1.4,23.7,95.7,0,0.25,14,�k��,3.4,48,,
2016/8/2,9:00:00,14,�k��,1.7,25.3,87.2,0,0.47,14,�k��,3.9,47,,
2016/8/2,10:00:00,14,�k��,1.8,25.8,85,0,0.49,14,�k��,4,3,,
2016/8/2,11:00:00,6,�쓌,1.8,25.3,86.4,0,0.44,14,�k��,3.3,2,,
2016/8/2,12:00:00,6,�쓌,2.3,24.6,86.5,0,0.53,5,���쓌,4.5,28,,
2016/8/2,13:00:00,8,��,3.6,23.6,86.6,0,0.72,6,�쓌,6.9,41,,
2016/8/2,14:00:00,8,��,3.7,23.9,86.6,0,0.68,8,��,6.4,51,,
2016/8/2,15:00:00,8,��,2.8,23.1,90.3,0,0.5,8,��,6.5,1,,
2016/8/2,16:00:00,9,��쐼,2.5,23.8,82.9,0,0.53,8,��,5.8,2,,
2016/8/2,17:00:00,10,�쐼,0.8,23.7,85.6,0,0.31,8,��,5.2,8,,
2016/8/2,18:00:00,5,���쓌,1.4,22.3,90.7,0,0.16,9,��쐼,2.3,12,,
2016/8/2,19:00:00,16,�É�,0.1,20.2,95.3,0,0.03,5,���쓌,2.4,41,,
2016/8/2,20:00:00,3,���k��,1.5,18.8,97.6,0,0,3,���k��,3.5,32,,
2016/8/2,21:00:00,4,��,1.5,18.3,98.7,0,0,3,���k��,2.5,50,,
2016/8/2,22:00:00,2,�k��,2,18.4,99.8,0,0,3,���k��,3.6,35,,
2016/8/2,23:00:00,2,�k��,2.7,18.5,100,0,0,1,�k�k��,4.6,48,,
2016/8/2,0:00:00,1,�k�k��,3.4,18.7,100,0,0,1,�k�k��,5.7,47,,
2016/8/3,1:00:00,1,�k�k��,2.4,18.7,100,0,0,1,�k�k��,6.6,28,,
2016/8/3,2:00:00,1,�k�k��,2.5,19,100,0,0,2,�k��,4.5,55,,
2016/8/3,3:00:00,1,�k�k��,1.8,19.2,100,0,0,1,�k�k��,3.8,20,,
2016/8/3,4:00:00,16,�k,1.1,19.3,100,0,0,1,�k�k��,3.1,21,,
2016/8/3,5:00:00,16,�k,0.8,19.6,100,0,0.01,1,�k�k��,1.9,17,,
2016/8/3,6:00:00,3,���k��,0.6,19.9,100,0,0.05,1,�k�k��,1.7,12,,
2016/8/3,7:00:00,3,���k��,0.7,20.5,99.3,0,0.1,3,���k��,1.7,55,,
2016/8/3,8:00:00,5,���쓌,0.3,20.9,98,0,0.15,1,�k�k��,1.5,44,,
2016/8/3,9:00:00,6,�쓌,1.9,21,96.7,0,0.29,6,�쓌,2.7,50,,
2016/8/3,10:00:00,6,�쓌,2,22.1,93.7,0,0.46,6,�쓌,3.1,57,,
2016/8/3,11:00:00,6,�쓌,2.4,22.6,93.1,0,0.58,6,�쓌,3.7,37,,
2016/8/3,12:00:00,7,��쓌,2.6,21.5,91.2,0,0.74,6,�쓌,4.3,48,,
2016/8/3,13:00:00,5,���쓌,3.5,21.7,90.2,0,0.55,4,��,5.3,56,,
2016/8/3,14:00:00,5,���쓌,3,21.1,94.3,0,0.38,5,���쓌,5.1,52,,
2016/8/3,15:00:00,5,���쓌,2.1,20.8,95.8,0,0.39,5,���쓌,5,4,,
2016/8/3,16:00:00,3,���k��,2.1,20.2,96.9,0,0.31,4,��,3.8,38,,
2016/8/3,17:00:00,2,�k��,3,19.4,98.1,0,0.18,2,�k��,4.5,53,,
2016/8/3,18:00:00,2,�k��,1.8,19.3,99.4,0,0.07,1,�k�k��,5.2,15,,
2016/8/3,19:00:00,2,�k��,2.3,19,99.9,0,0.01,2,�k��,4,42,,
2016/8/3,20:00:00,1,�k�k��,1.4,19.2,100,0,0,2,�k��,3.7,4,,
2016/8/3,21:00:00,16,�k,1.4,19,100,0,0,1,�k�k��,2.2,13,,
2016/8/3,22:00:00,16,�É�,0.2,19,100,0,0,1,�k�k��,2,30,,
2016/8/3,23:00:00,6,�쓌,0.9,19,100,0,0,6,�쓌,1.8,36,,
2016/8/3,0:00:00,9,��쐼,1.2,19.3,100,0,0,9,��쐼,2,49,,
2016/8/4,1:00:00,6,�쓌,0.6,19.3,100,0,0,10,�쐼,1.9,6,,
2016/8/4,2:00:00,9,��쐼,0.6,19.3,100,0,0,11,���쐼,2.4,39,,
2016/8/4,3:00:00,10,�쐼,0.4,19,100,0,0,10,�쐼,1.7,25,,
2016/8/4,4:00:00,9,��쐼,0.8,18.9,100,0,0,10,�쐼,1.7,27,,
2016/8/4,5:00:00,7,��쓌,0.7,18.7,100,0,0.01,10,�쐼,2.3,1,,
2016/8/4,6:00:00,3,���k��,1.1,19.2,100,0,0.06,4,��,1.8,55,,
2016/8/4,7:00:00,3,���k��,0.8,20.4,100,0,0.26,15,�k�k��,2.3,25,,
2016/8/4,8:00:00,16,�É�,0.2,21.4,99.2,0,0.22,13,���k��,2.2,26,,
2016/8/4,9:00:00,16,�É�,0.1,24.2,88.9,0,0.62,15,�k�k��,1.6,16,,
2016/8/4,10:00:00,6,�쓌,1.5,25.7,80.4,0,0.83,7,��쓌,2.8,40,,
2016/8/4,11:00:00,7,��쓌,1.3,24.9,80.2,0,0.92,7,��쓌,4.2,26,,
2016/8/4,12:00:00,5,���쓌,0.4,27,74.4,0,0.97,6,�쓌,3.3,12,,
2016/8/4,13:00:00,16,�É�,0,26.5,77,0,0.88,5,���쓌,1.3,6,,
2016/8/4,14:00:00,,,,,,,,,,,,,
2016/8/4,15:00:00,,,,,,,,,,,,,
2016/8/4,16:00:00,,,,,,,,,,,,,
2016/8/4,17:00:00,16,�É�,0.2,27.9,76.2,0,0.38,8,��,2.8,48,,
2016/8/4,18:00:00,,,,,,,,,,,,,
2016/8/4,19:00:00,12,��,1.6,23.7,78.7,0,0.02,10,�쐼,4.1,21,,
2016/8/4,20:00:00,,,,,,,,,,,,,
2016/8/4,21:00:00,11,���쐼,0.3,20.2,93,0,0,8,��,2.5,47,,
2016/8/4,22:00:00,13,���k��,1.3,18.8,98,0,0,12,��,2.1,50,,
2016/8/4,23:00:00,12,��,2,18.7,96.5,0,0,12,��,2.5,58,,
2016/8/4,0:00:00,11,���쐼,1,17.7,97.3,0,0,13,���k��,2.2,25,,
2016/8/5,1:00:00,12,��,2,18.2,99,0,0,12,��,2.6,48,,
2016/8/5,2:00:00,12,��,0.8,17.1,98.7,0,0,12,��,2.5,8,,
2016/8/5,3:00:00,12,��,1.9,17.3,99.5,0,0,12,��,2.5,55,,
2016/8/5,4:00:00,12,��,1.6,17.3,99.6,0,0,14,�k��,2.4,14,,
2016/8/5,5:00:00,13,���k��,0.7,17.2,99.7,0,0.02,12,��,2,37,,
2016/8/5,6:00:00,2,�k��,0.8,19.7,96.9,0,0.14,2,�k��,1.9,46,,
2016/8/5,7:00:00,3,���k��,1.7,22.7,89.5,0,0.33,3,���k��,2.7,55,,
2016/8/5,8:00:00,13,���k��,1.2,24.8,79.3,0,0.53,15,�k�k��,2.5,59,,
2016/8/5,9:00:00,14,�k��,0.8,27,67.7,0,0.68,14,�k��,3,3,,
2016/8/5,10:00:00,16,�É�,0.1,27.9,72.8,0,0.78,5,���쓌,3.6,29,,
2016/8/5,11:00:00,16,�É�,0,27.8,70.7,0,0.7,8,��,3,47,,
2016/8/5,12:00:00,16,�É�,0,28.7,71,0,0.95,9,��쐼,2.3,13,,
2016/8/5,13:00:00,16,�É�,0,28.1,68.4,0,0.78,8,��,1,39,,
2016/8/5,14:00:00,8,��,0.3,26.8,68,0,0.75,10,�쐼,3.2,58,,
2016/8/5,15:00:00,8,��,1,26.9,71.1,0,0.48,8,��,3.3,52,,
2016/8/5,16:00:00,8,��,0.6,27.3,70.7,0,0.47,7,��쓌,3,25,,
2016/8/5,17:00:00,16,�É�,0,27.6,70,0,0.32,8,��,2.7,13,,
2016/8/5,18:00:00,9,��쐼,0.7,24.3,86.8,0,0.13,11,���쐼,1.6,42,,
2016/8/5,19:00:00,14,�k��,1.7,23.1,83,0,0.02,14,�k��,2.4,58,,
2016/8/5,20:00:00,1,�k�k��,1.1,20.3,89.9,0,0,15,�k�k��,3.9,9,,
2016/8/5,21:00:00,3,���k��,2.3,19.9,91.5,0,0,4,��,4.4,15,,
2016/8/5,22:00:00,2,�k��,2.6,19.9,91.7,0,0,2,�k��,4.6,29,,
2016/8/5,23:00:00,16,�k,0.4,18,94.3,0,0,2,�k��,3.5,2,,
2016/8/5,0:00:00,14,�k��,1.1,16.8,97.5,0,0,13,���k��,2.5,43,,
2016/8/6,1:00:00,13,���k��,2,17.4,99.7,0,0,14,�k��,3.2,59,,
2016/8/6,2:00:00,13,���k��,1.2,16.6,98.5,0,0,14,�k��,3.4,1,,
2016/8/6,3:00:00,13,���k��,1.6,15.9,98.8,0,0,11,���쐼,2.5,52,,
2016/8/6,4:00:00,12,��,1.6,15.5,98.3,0,0,8,��,3,6,,
2016/8/6,5:00:00,13,���k��,1.9,16.2,98.4,0,0.02,13,���k��,3.8,55,,
2016/8/6,6:00:00,14,�k��,2.5,18.3,90.7,0,0.15,13,���k��,4.1,51,,
2016/8/6,7:00:00,13,���k��,0.8,20.1,83.9,0,0.35,14,�k��,3.1,5,,
2016/8/6,8:00:00,7,��쓌,0.9,23.1,77.4,0,0.54,11,���쐼,2.6,45,,
2016/8/6,9:00:00,6,�쓌,2.1,23,70.9,0,0.72,6,�쓌,3.6,31,,
2016/8/6,10:00:00,,,,,,,,,,,,,
2016/8/6,11:00:00,8,��,2.8,23.9,68.5,0,0.95,8,��,6.3,44,,
2016/8/6,12:00:00,7,��쓌,3.4,23.3,71.6,0,0.98,8,��,6.2,28,,
2016/8/6,13:00:00,,,,,,,,,,,,,
2016/8/6,14:00:00,7,��쓌,3.5,22.4,78.9,0,0.85,8,��,6.9,27,,
2016/8/6,15:00:00,,,,,,,,,,,,,
2016/8/6,16:00:00,6,�쓌,2.4,22,81.3,0,0.55,8,��,4.7,10,,
2016/8/6,17:00:00,7,��쓌,2.1,21.2,85,0,0.37,6,�쓌,4.5,8,,
2016/8/6,18:00:00,6,�쓌,1.1,20.5,90.3,0,0.17,5,���쓌,4,34,,
2016/8/6,19:00:00,2,�k��,1.2,18.6,95.8,0,0.02,3,���k��,2.2,30,,
2016/8/6,20:00:00,2,�k��,1.8,17.5,97.7,0,0,2,�k��,2.4,55,,
2016/8/6,21:00:00,14,�k��,0.9,17.5,98.5,0,0,2,�k��,2.7,20,,
2016/8/6,22:00:00,13,���k��,0.7,17.2,98.9,0,0,15,�k�k��,2,17,,
2016/8/6,23:00:00,15,�k�k��,1,18.4,98.9,0,0,15,�k�k��,2.8,46,,
2016/8/6,0:00:00,2,�k��,1.9,19.3,97.5,0,0,1,�k�k��,3.4,46,,
2016/8/7,1:00:00,13,���k��,1.2,18.6,98,0,0,1,�k�k��,2.7,2,,
2016/8/7,2:00:00,14,�k��,1.8,18.3,97.3,0,0,9,��쐼,3.2,24,,
2016/8/7,3:00:00,14,�k��,2.2,18.1,97.3,0,0,14,�k��,4,49,,
2016/8/7,4:00:00,14,�k��,2.2,18.1,97.2,0,0,14,�k��,3.7,29,,
2016/8/7,5:00:00,,,,,,,,,,,,,
2016/8/7,6:00:00,,,,,,,,,,,,,
2016/8/7,7:00:00,5,���쓌,0.7,19.6,94.4,0,0.11,8,��,3.1,34,,
2016/8/7,8:00:00,4,��,1.8,20.1,94.4,0,0.15,4,��,3.2,18,,
2016/8/7,9:00:00,3,���k��,1.9,21.5,87.8,0,0.29,2,�k��,3.3,57,,
2016/8/7,10:00:00,,,,,,,,,,,,,
2016/8/7,11:00:00,6,�쓌,3.5,21,83.6,0,0.89,6,�쓌,5.4,52,,
2016/8/7,12:00:00,8,��,2.6,20.7,88.3,0,0.55,6,�쓌,4.9,58,,
2016/8/7,13:00:00,6,�쓌,2.8,21.9,88.5,0,0.56,6,�쓌,4.9,27,,
2016/8/7,14:00:00,5,���쓌,2.5,21.1,91,0,0.37,5,���쓌,4.2,11,,
2016/8/7,15:00:00,4,��,3,21.8,89.9,0,0.36,4,��,4.4,52,,
2016/8/7,16:00:00,4,��,2.4,22.1,91,0,0.39,5,���쓌,4.4,19,,
2016/8/7,17:00:00,,,,,,,,,,,,,
2016/8/7,18:00:00,,,,,,,,,,,,,
2016/8/7,19:00:00,2,�k��,1.9,19.9,97.3,0,0.02,4,��,3.7,6,,
2016/8/7,20:00:00,16,�k,0.9,19.5,97.9,0,0,2,�k��,2.8,16,,
2016/8/7,21:00:00,13,���k��,1.1,18.9,99.3,0,0,13,���k��,2.1,59,,
2016/8/7,22:00:00,13,���k��,0.5,18.6,99.3,0,0,13,���k��,2.4,27,,
2016/8/7,23:00:00,13,���k��,1.7,19.5,99.8,0,0,13,���k��,3,48,,
2016/8/7,0:00:00,13,���k��,1.6,19.2,99.9,0,0,13,���k��,3.2,45,,
2016/8/8,1:00:00,14,�k��,1.4,19.2,100,0,0,14,�k��,3.1,6,,
2016/8/8,2:00:00,14,�k��,1.3,19,100,0,0,13,���k��,3.2,12,,
2016/8/8,3:00:00,13,���k��,1.8,18.9,100,0,0,13,���k��,2.9,59,,
2016/8/8,4:00:00,13,���k��,1.1,18.7,100,0,0,13,���k��,3.6,4,,
2016/8/8,5:00:00,14,�k��,1.5,18.9,100,0,0.01,14,�k��,3.2,57,,
2016/8/8,6:00:00,16,�É�,0.1,19.7,100,0,0.06,14,�k��,2.7,5,,
2016/8/8,7:00:00,2,�k��,0.6,20.5,100,0,0.12,13,���k��,1.8,19,,
2016/8/8,8:00:00,1,�k�k��,1.1,21.4,99.6,0,0.17,1,�k�k��,1.9,53,,
2016/8/8,9:00:00,8,��,0.4,22.8,96.8,0,0.3,7,��쓌,2,58,,
2016/8/8,10:00:00,5,���쓌,1.6,23,94.8,0,0.44,7,��쓌,3.1,15,,
2016/8/8,11:00:00,7,��쓌,2.2,23.1,94.8,0,0.41,5,���쓌,4.3,30,,
2016/8/8,12:00:00,7,��쓌,3.9,23.3,91.1,0,0.55,8,��,9.9,50,,
2016/8/8,13:00:00,8,��,4.7,23.7,87.1,0,0.83,7,��쓌,9.3,7,,
2016/8/8,14:00:00,8,��,4.5,24.1,87.3,0,0.78,7,��쓌,11.1,13,,
2016/8/8,15:00:00,8,��,4.9,23.7,88.3,0,0.69,7,��쓌,9.2,52,,
2016/8/8,16:00:00,8,��,3.4,24,90.4,0,0.54,8,��,8.3,14,,
2016/8/8,17:00:00,7,��쓌,2.4,23.1,91.9,0,0.32,7,��쓌,7.2,4,,
2016/8/8,18:00:00,8,��,2,21.9,97.4,0,0.12,7,��쓌,4.8,2,,
2016/8/8,19:00:00,7,��쓌,1.6,21.5,99.2,0,0.01,7,��쓌,4,19,,
2016/8/8,20:00:00,16,�É�,0,21.5,99.6,0,0,7,��쓌,3.1,3,,
2016/8/8,21:00:00,6,�쓌,1.2,21.9,99.7,0,0,8,��,3.5,24,,
2016/8/8,22:00:00,,,,,,,,,,,,,
2016/8/8,23:00:00,12,��,1.7,21.5,99.7,2,0,8,��,7.7,15,,
2016/8/8,0:00:00,5,���쓌,2,21,98.8,0.5,0,13,���k��,4.1,28,,
2016/8/9,1:00:00,2,�k��,0.9,20.8,99.4,0,0,4,��,1.9,12,,
2016/8/9,2:00:00,1,�k�k��,0.3,20.6,99.6,0,0,1,�k�k��,2,7,,
2016/8/9,3:00:00,14,�k��,0.9,21.2,99.8,0,0,14,�k��,1.8,12,,
2016/8/9,4:00:00,15,�k�k��,1.1,21.6,99.6,0,0,15,�k�k��,3.5,49,,
2016/8/9,5:00:00,13,���k��,0.9,21.9,99.3,0.5,0,1,�k�k��,3.3,21,,
2016/8/9,6:00:00,2,�k��,3,22,98.7,4,0.01,2,�k��,4.4,55,,
2016/8/9,7:00:00,1,�k�k��,2.7,22,99,5.5,0.01,2,�k��,6.1,2,,
2016/8/9,8:00:00,2,�k��,3.4,22.1,98.9,4,0.02,2,�k��,6.2,37,,
2016/8/9,9:00:00,1,�k�k��,2.8,22.5,98.5,4,0.04,2,�k��,6.1,42,,
2016/8/9,10:00:00,1,�k�k��,3.1,23,96,2.5,0.14,1,�k�k��,6.1,34,,
2016/8/9,11:00:00,15,�k�k��,3.4,22.9,92.2,0,0.24,14,�k��,6.4,51,,
2016/8/9,12:00:00,,,,,,,,,,,,,
2016/8/9,13:00:00,15,�k�k��,3.2,22.1,86.8,0,0.33,15,�k�k��,8.4,56,,
2016/8/9,14:00:00,15,�k�k��,5.2,21.2,85.8,0,0.22,1,�k�k��,10.9,52,,
2016/8/9,15:00:00,15,�k�k��,3.6,21.1,84,0,0.14,15,�k�k��,11.6,1,,
2016/8/9,16:00:00,15,�k�k��,2.9,20.4,88.1,0,0.08,15,�k�k��,9.3,36,,
2016/8/9,17:00:00,14,�k��,2.8,19.5,93.5,0,0.04,16,�k,7.7,18,,
2016/8/9,18:00:00,14,�k��,3.5,20.2,88.8,0,0.05,13,���k��,7.1,23,,
2016/8/9,19:00:00,13,���k��,3.3,19.9,89.5,0,0.03,14,�k��,6.3,2,,
2016/8/9,20:00:00,14,�k��,0.9,19.4,94.2,0,0,14,�k��,5.3,16,,
2016/8/9,21:00:00,14,�k��,2.8,20.3,90.9,0,0,13,���k��,4.7,51,,
2016/8/9,22:00:00,13,���k��,3,20.2,90.6,0,0,13,���k��,5.1,2,,
2016/8/9,23:00:00,13,���k��,2.5,19.6,88.9,0,0,13,���k��,5.3,27,,
2016/8/9,0:00:00,14,�k��,2.1,19.8,84.1,0,0,1,�k�k��,5.4,32,,
2016/8/10,1:00:00,11,���쐼,0.5,17.1,95.6,0,0,13,���k��,3.8,2,,
2016/8/10,2:00:00,11,���쐼,1.5,16,98.5,0,0,12,��,2.5,59,,
2016/8/10,3:00:00,13,���k��,2,18,90.4,0,0,12,��,3.9,47,,
2016/8/10,4:00:00,14,�k��,1.7,17.3,90.1,0,0,13,���k��,3.9,16,,
2016/8/10,5:00:00,12,��,1.9,17.3,91.2,0,0.01,12,��,4.2,44,,
2016/8/10,6:00:00,15,�k�k��,1.1,18.4,87.1,0,0.11,13,���k��,4.4,26,,
2016/8/10,7:00:00,15,�k�k��,1.9,20.5,77.7,0,0.35,13,���k��,4.9,12,,
2016/8/10,8:00:00,14,�k��,1.7,20.9,78.5,0,0.41,1,�k�k��,4.4,30,,
2016/8/10,9:00:00,15,�k�k��,1.7,21.7,73.1,0,0.58,16,�k,3.7,37,,
2016/8/10,10:00:00,13,���k��,0.5,24,70.3,0,0.82,13,���k��,4.5,14,,
2016/8/10,11:00:00,3,���k��,2.7,23.8,70.7,0,0.57,3,���k��,4.4,43,,
2016/8/10,12:00:00,5,���쓌,3.6,24.5,70.5,0,0.95,4,��,5.6,38,,
2016/8/10,13:00:00,6,�쓌,3.7,23,72.1,0,0.97,5,���쓌,6.2,20,,
2016/8/10,14:00:00,6,�쓌,2.9,22.9,68.9,0,0.85,5,���쓌,5.7,8,,
2016/8/10,15:00:00,6,�쓌,3,23.1,69,0,0.66,6,�쓌,4.8,54,,
2016/8/10,16:00:00,7,��쓌,2.4,21.9,75.3,0,0.53,8,��,4.6,36,,
2016/8/10,17:00:00,7,��쓌,1.8,21,85.8,0,0.29,8,��,4.2,13,,
2016/8/10,18:00:00,5,���쓌,1.6,19.4,92.4,0,0.08,6,�쓌,3,5,,
2016/8/10,19:00:00,7,��쓌,0.6,18,95.7,0,0.01,6,�쓌,2.1,14,,
2016/8/10,20:00:00,16,�É�,0,17.2,98,0,0,1,�k�k��,1.2,35,,
2016/8/10,21:00:00,3,���k��,0.3,16.7,98.6,0,0,12,��,1.8,17,,
2016/8/10,22:00:00,16,�k,0.5,16.3,98.7,0,0,5,���쓌,2.7,21,,
2016/8/10,23:00:00,12,��,1.5,14.9,99.8,0,0,12,��,2.2,55,,
2016/8/10,0:00:00,12,��,0.8,15.2,100,0,0,13,���k��,2.5,30,,
2016/8/11,1:00:00,12,��,1,15.1,100,0,0,12,��,2.3,19,,
2016/8/11,2:00:00,12,��,1.6,14.4,100,0,0,12,��,2.1,59,,
2016/8/11,3:00:00,13,���k��,1.8,15.3,100,0,0,13,���k��,2.8,49,,
2016/8/11,4:00:00,16,�É�,0.2,16.3,100,0,0,13,���k��,2.4,2,,
2016/8/11,5:00:00,11,���쐼,0.9,16.2,100,0,0.01,11,���쐼,1.5,59,,
2016/8/11,6:00:00,13,���k��,1.8,17.1,100,0,0.05,13,���k��,2.5,53,,
2016/8/11,7:00:00,14,�k��,0.5,18.2,99.7,0,0.17,13,���k��,1.9,3,,
2016/8/11,8:00:00,13,���k��,0.8,21.4,85.8,0,0.49,13,���k��,2.6,45,,
2016/8/11,9:00:00,5,���쓌,3.4,20.4,86.8,0,0.76,5,���쓌,4.6,56,,
2016/8/11,10:00:00,5,���쓌,1.9,22.7,84.1,0,0.85,5,���쓌,4.5,6,,
2016/8/11,11:00:00,6,�쓌,3,22.4,77.9,0,0.94,6,�쓌,5.4,56,,
2016/8/11,12:00:00,7,��쓌,2.5,22.9,76.1,0,0.97,7,��쓌,4.9,33,,
2016/8/11,13:00:00,7,��쓌,3.3,22.9,76.1,0,0.94,6,�쓌,5.8,28,,
2016/8/11,14:00:00,8,��,3.3,22.7,76.6,0,0.84,8,��,5.9,46,,
2016/8/11,15:00:00,8,��,3,22.1,81.9,0,0.7,8,��,6.8,10,,
2016/8/11,16:00:00,8,��,3.1,21.5,83.9,0,0.54,7,��쓌,5.6,11,,
2016/8/11,17:00:00,8,��,2.4,21,85.7,0,0.35,8,��,5.1,1,,
2016/8/11,18:00:00,9,��쐼,1.3,19.6,93.4,0,0.12,8,��,4,3,,
2016/8/11,19:00:00,16,�É�,0.2,19,96.1,0,0.01,6,�쓌,2.3,40,,
2016/8/11,20:00:00,8,��,0.7,19.3,96.2,0,0,7,��쓌,2.2,46,,
2016/8/11,21:00:00,8,��,0.6,19.4,96.4,0,0,7,��쓌,2.1,12,,
2016/8/11,22:00:00,5,���쓌,1.4,18.8,97.5,0,0,4,��,2,59,,
2016/8/11,23:00:00,2,�k��,0.9,18.7,97.6,0,0,3,���k��,1.9,20,,
2016/8/11,0:00:00,1,�k�k��,1.3,18.1,98.8,0,0,1,�k�k��,1.9,51,,
2016/8/12,1:00:00,16,�É�,0,16.5,99,0,0,1,�k�k��,1.6,25,,
2016/8/12,2:00:00,13,���k��,0.9,16.3,100,0,0,12,��,1.8,34,,
2016/8/12,3:00:00,14,�k��,1.1,17.1,100,0,0,14,�k��,3.5,22,,
2016/8/12,4:00:00,13,���k��,0.6,15.2,100,0,0,13,���k��,1.7,36,,
2016/8/12,5:00:00,13,���k��,0.7,15.6,100,0,0.01,12,��,1.6,46,,
2016/8/12,6:00:00,16,�É�,0.2,17.2,100,0,0.11,14,�k��,2.1,14,,
2016/8/12,7:00:00,4,��,1,18.6,96.7,0,0.16,3,���k��,1.8,54,,
2016/8/12,8:00:00,6,�쓌,2,19.8,90.9,0,0.31,5,���쓌,3.2,59,,
2016/8/12,9:00:00,6,�쓌,2.3,21.1,85.5,0,0.53,6,�쓌,4.4,49,,
2016/8/12,10:00:00,7,��쓌,2.4,22.4,79.9,0,0.81,6,�쓌,4.5,39,,
2016/8/12,11:00:00,6,�쓌,2.6,22.4,77.3,0,0.93,5,���쓌,5.2,55,,
2016/8/12,12:00:00,6,�쓌,3,22.4,80.4,0,0.9,6,�쓌,6.1,17,,
2016/8/12,13:00:00,,,,,,,,,,,,,
2016/8/12,14:00:00,,,,,,,,,,,,,
2016/8/12,15:00:00,8,��,3.1,20.9,86.1,0,0.46,7,��쓌,6.5,21,,
2016/8/12,16:00:00,7,��쓌,2.5,21.6,85.9,0,0.4,7,��쓌,6,43,,
2016/8/12,17:00:00,,,,,,,,,,,,,
2016/8/12,18:00:00,5,���쓌,1.2,20,91.9,0,0.12,8,��,4.4,12,,
2016/8/12,19:00:00,5,���쓌,1,18.4,96.2,0,0.01,5,���쓌,2.7,40,,
2016/8/12,20:00:00,16,�É�,0.2,18.2,97.1,0,0,5,���쓌,2.4,42,,
2016/8/12,21:00:00,16,�É�,0,16.5,99.2,0,0,2,�k��,1.2,11,,
2016/8/12,22:00:00,16,�É�,0.1,18.2,99.9,0,0,2,�k��,1.1,24,,
2016/8/12,23:00:00,3,���k��,0.9,18.9,99.5,0,0,15,�k�k��,1.6,11,,
2016/8/12,0:00:00,5,���쓌,2.4,19.5,97.7,0,0,5,���쓌,2.9,55,,
2016/8/13,1:00:00,7,��쓌,1.2,19.7,94.6,0,0,5,���쓌,3.4,18,,
2016/8/13,2:00:00,8,��,0.9,19.3,96,0,0,7,��쓌,2.5,41,,
2016/8/13,3:00:00,6,�쓌,0.4,19,97.3,0,0,7,��쓌,2.1,3,,
2016/8/13,4:00:00,6,�쓌,0.8,19.2,97.1,0,0,6,�쓌,1.6,47,,
2016/8/13,5:00:00,16,�É�,0,19.2,97.4,0,0,7,��쓌,1.1,3,,
2016/8/13,6:00:00,7,��쓌,1.2,19.6,94.6,0,0.03,7,��쓌,2.1,53,,
2016/8/13,7:00:00,8,��,1.8,20.2,92.9,0,0.09,8,��,3.1,55,,
2016/8/13,8:00:00,,,,,,,,,,,,,
2016/8/13,9:00:00,7,��쓌,2.2,21.3,82.5,0,0.4,7,��쓌,4.2,34,,
2016/8/13,10:00:00,7,��쓌,2.8,21.4,81.8,0,0.45,7,��쓌,5.2,59,,
2016/8/13,11:00:00,7,��쓌,3,22.3,77.5,0,0.82,7,��쓌,5.2,52,,
2016/8/13,12:00:00,6,�쓌,3.9,21.7,80.3,0,0.74,6,�쓌,6.8,54,,
2016/8/13,13:00:00,7,��쓌,3.1,21.5,76.1,0,0.74,6,�쓌,5.7,0,,
2016/8/13,14:00:00,7,��쓌,3.1,21,81.5,0,0.58,7,��쓌,5.3,3,,
2016/8/13,15:00:00,7,��쓌,2.7,21.6,83.5,0,0.47,8,��,4.8,42,,
2016/8/13,16:00:00,6,�쓌,2.3,21.4,82.8,0,0.35,6,�쓌,5.5,12,,
2016/8/13,17:00:00,,,,,,,,,,,,,
2016/8/13,18:00:00,6,�쓌,1.1,19.9,85.4,0,0.11,6,�쓌,3.7,12,,
2016/8/13,19:00:00,6,�쓌,1.1,19.3,89.2,0,0,6,�쓌,2.1,14,,
2016/8/13,20:00:00,16,�É�,0.2,16.7,97.7,0,0,7,��쓌,2.2,10,,
2016/8/13,21:00:00,16,�É�,0,15.3,99.2,0,0,1,�k�k��,0.7,36,,
2016/8/13,22:00:00,12,��,0.8,14.7,99.8,0,0,13,���k��,1.8,35,,
2016/8/13,23:00:00,13,���k��,1.2,14.6,100,0,0,12,��,2.2,12,,
2016/8/13,0:00:00,13,���k��,0.5,16.1,100,0,0,13,���k��,2.1,26,,
2016/8/14,1:00:00,12,��,1,16.3,99.6,0,0,14,�k��,2.4,15,,
2016/8/14,2:00:00,13,���k��,0.9,16.5,99.3,0,0,14,�k��,2.4,2,,
2016/8/14,3:00:00,,,,,,,,,,,,,
2016/8/14,4:00:00,14,�k��,2,17.3,97.2,0,0,16,�k,3.1,49,,
2016/8/14,5:00:00,14,�k��,1,17.5,98.6,0,0.01,14,�k��,2.2,0,,
2016/8/14,6:00:00,16,�É�,0.2,18.1,98.1,0,0.03,2,�k��,1.9,4,,
2016/8/14,7:00:00,1,�k�k��,0.6,18.3,97.7,0,0.08,1,�k�k��,2.5,24,,
2016/8/14,8:00:00,16,�k,1.8,18.8,97.3,0,0.14,1,�k�k��,3.1,38,,
2016/8/14,9:00:00,14,�k��,2,19.5,94.9,0,0.22,15,�k�k��,3.9,59,,
2016/8/14,10:00:00,15,�k�k��,1.5,20.8,90.9,0,0.35,15,�k�k��,3.9,35,,
2016/8/14,11:00:00,4,��,2.9,21,91.7,0,0.28,4,��,4.4,56,,
2016/8/14,12:00:00,3,���k��,2.5,20.5,97.1,0,0.32,5,���쓌,4.4,0,,
2016/8/14,13:00:00,2,�k��,2.5,21.5,94.9,0,0.36,4,��,5.2,35,,
2016/8/14,14:00:00,4,��,3.2,21.6,95.2,0,0.29,4,��,4.8,44,,
2016/8/14,15:00:00,,,,,,,,,,,,,
2016/8/14,16:00:00,4,��,3.2,21.8,93,0,0.23,4,��,6.1,36,,
2016/8/14,17:00:00,3,���k��,2.6,22.1,90.6,0,0.18,3,���k��,4.6,51,,
2016/8/14,18:00:00,3,���k��,3.6,21.1,94.8,0,0.08,4,��,6.4,42,,
2016/8/14,19:00:00,2,�k��,1,20.4,98.2,0,0.01,4,��,4.3,4,,
2016/8/14,20:00:00,16,�k,1.4,20.7,97.2,0,0,1,�k�k��,2.3,11,,
2016/8/14,21:00:00,,,,,,,,,,,,,
2016/8/14,22:00:00,14,�k��,1.5,20.4,97.3,0,0,14,�k��,3.5,40,,
2016/8/14,23:00:00,14,�k��,2.1,20.5,95.2,0,0,14,�k��,4,39,,
2016/8/14,0:00:00,15,�k�k��,2.3,20.9,94,0,0,14,�k��,5.4,43,,
2016/8/15,1:00:00,14,�k��,3.2,21.1,92.8,0,0,14,�k��,7.3,58,,
2016/8/15,2:00:00,14,�k��,4.2,20.7,95.2,0,0,14,�k��,6.9,56,,
2016/8/15,3:00:00,13,���k��,4.1,21,93.3,0,0,13,���k��,8.1,45,,
2016/8/15,4:00:00,15,�k�k��,2.6,21.6,85.5,0,0,15,�k�k��,7.8,43,,
2016/8/15,5:00:00,13,���k��,3,21.3,86,0,0,14,�k��,5.7,46,,
2016/8/15,6:00:00,13,���k��,3,21.5,82.7,0,0.02,13,���k��,6.5,40,,
2016/8/15,7:00:00,11,���쐼,1.7,22.2,86,0,0.12,14,�k��,5,1,,
2016/8/15,8:00:00,8,��,2.5,21.7,93.1,0,0.17,8,��,5.5,57,,
2016/8/15,9:00:00,7,��쓌,1.9,24.3,81.1,0,0.51,8,��,4.7,0,,
2016/8/15,10:00:00,4,��,2.1,27.4,71.4,0,0.84,6,�쓌,5.6,53,,
2016/8/15,11:00:00,5,���쓌,1,27.2,70.5,0,0.96,4,��,4.7,25,,
2016/8/15,12:00:00,10,�쐼,7.1,27.9,63.1,0,0.93,12,��,12,42,,
2016/8/15,13:00:00,10,�쐼,7.1,25.3,70,0,0.68,8,��,11.5,43,,
2016/8/15,14:00:00,8,��,3.4,23.6,81.8,0,0.29,10,�쐼,10.5,0,,
2016/8/15,15:00:00,8,��,3.9,23.6,80.6,0,0.36,8,��,8.1,53,,
2016/8/15,16:00:00,8,��,4.5,24,79.1,0,0.37,8,��,9.8,43,,
2016/8/15,17:00:00,9,��쐼,5.1,22.1,85.6,0,0.27,9,��쐼,9.6,19,,
2016/8/15,18:00:00,9,��쐼,4.7,21.5,87.5,0,0.04,9,��쐼,9.9,53,,
2016/8/15,19:00:00,9,��쐼,4,22.1,83.2,0,0,8,��,9.1,23,,
2016/8/15,20:00:00,9,��쐼,3.1,22.1,81.6,0,0,8,��,7,11,,
2016/8/15,21:00:00,10,�쐼,2.5,21.7,84.5,0,0,8,��,6.3,29,,
2016/8/15,22:00:00,9,��쐼,1.9,21.3,89.3,0,0,8,��,4.1,38,,
2016/8/15,23:00:00,10,�쐼,3,21.7,91.2,0,0,8,��,6.9,47,,
2016/8/15,0:00:00,9,��쐼,1.8,21.4,94,0,0,8,��,5.2,38,,
2016/8/16,1:00:00,10,�쐼,1.7,21.4,95.7,0,0,9,��쐼,4.2,47,,
2016/8/16,2:00:00,16,�É�,0.2,21.4,97.2,0,0,10,�쐼,3.1,8,,
2016/8/16,3:00:00,7,��쓌,0.8,21.2,98.1,0.5,0,8,��,1.5,0,,
2016/8/16,4:00:00,14,�k��,0.7,20.3,98.6,4,0,14,�k��,2.4,32,,
2016/8/16,5:00:00,9,��쐼,1.5,20.3,98.9,0.5,0,13,���k��,4.4,17,,
2016/8/16,6:00:00,16,�É�,0,20.6,97.9,0.5,0.01,10,�쐼,3.2,34,,
2016/8/16,7:00:00,6,�쓌,0.8,21,98.5,2.5,0.06,7,��쓌,1.9,54,,
2016/8/16,8:00:00,4,��,1.2,20.8,98.5,3,0.08,6,�쓌,2.4,4,,
2016/8/16,9:00:00,4,��,2.2,20.3,99.1,9,0.05,3,���k��,3.8,45,,
2016/8/16,10:00:00,2,�k��,1.3,20.6,99.5,8.5,0.03,3,���k��,3.1,10,,
2016/8/16,11:00:00,3,���k��,1.1,21.1,99.6,8,0.08,3,���k��,4.3,18,,
2016/8/16,12:00:00,7,��쓌,0.8,21.5,99,3.5,0.15,5,���쓌,2.9,27,,
2016/8/16,13:00:00,8,��,1.6,21.8,98.3,0,0.12,7,��쓌,3.2,23,,
2016/8/16,14:00:00,8,��,3.5,22.2,97.9,0,0.16,7,��쓌,6.4,56,,
2016/8/16,15:00:00,7,��쓌,3.2,21.7,99.2,0,0.13,8,��,7.6,28,,
2016/8/16,16:00:00,6,�쓌,3,21.5,99.4,0,0.09,6,�쓌,7,12,,
2016/8/16,17:00:00,7,��쓌,2.8,20.9,99.5,0,0.05,6,�쓌,8.2,26,,
2016/8/16,18:00:00,6,�쓌,2.5,20.9,99.8,0,0.02,7,��쓌,5.2,0,,
2016/8/16,19:00:00,7,��쓌,2,21.2,99.9,0,0.01,6,�쓌,6.7,20,,
2016/8/16,20:00:00,7,��쓌,2.1,21.7,99.8,0,0,4,��,5.6,51,,
2016/8/16,21:00:00,9,��쐼,1.5,22.4,99.8,0,0,6,�쓌,5.3,15,,
2016/8/16,22:00:00,,,,,,,,,,,,,
2016/8/16,23:00:00,5,���쓌,0.6,21.3,99.9,0,0,6,�쓌,2.9,30,,
2016/8/16,0:00:00,5,���쓌,2.5,20.9,100,1.5,0,4,��,3.7,59,,
2016/8/17,1:00:00,16,�É�,0,21.1,100,2,0,4,��,3.6,1,,
2016/8/17,2:00:00,8,��,2.3,21.5,100,1,0,8,��,4.5,46,,
2016/8/17,3:00:00,9,��쐼,2.4,21.5,100,2.5,0,9,��쐼,6.6,41,,
2016/8/17,4:00:00,8,��,2.5,21.3,100,0.5,0,7,��쓌,7.7,35,,
2016/8/17,5:00:00,8,��,1.2,21.3,100,0.5,0,8,��,5.7,0,,
2016/8/17,6:00:00,8,��,2.1,21.5,100,1,0.01,8,��,4.3,48,,
2016/8/17,7:00:00,6,�쓌,2,21.5,100,2,0.03,9,��쐼,3.1,0,,
2016/8/17,8:00:00,4,��,1.5,21.5,100,0.5,0.07,3,���k��,4.4,39,,
2016/8/17,9:00:00,13,���k��,0.8,21,99.9,5.5,0.11,11,���쐼,3.6,40,,
2016/8/17,10:00:00,16,�k,1.4,22.5,99.7,3,0.22,14,�k��,2.7,46,,
2016/8/17,11:00:00,11,���쐼,1.2,22.2,99.5,9.5,0.14,7,��쓌,3.5,43,,
2016/8/17,12:00:00,8,��,2,21.6,99.4,2,0.11,7,��쓌,5.7,27,,
2016/8/17,13:00:00,5,���쓌,4.7,21.5,99.7,0.5,0.11,6,�쓌,7.4,47,,
2016/8/17,14:00:00,5,���쓌,4.7,21.2,99.8,0,0.09,5,���쓌,7.9,26,,
2016/8/17,15:00:00,4,��,6.3,21.3,99.9,0,0.08,4,��,10.2,59,,
2016/8/17,16:00:00,5,���쓌,9.1,21.2,99.8,2.5,0.03,4,��,14.1,48,,
2016/8/17,17:00:00,4,��,14.2,21.3,99.7,9.5,0.01,4,��,20.2,51,,
2016/8/17,18:00:00,,,,,,,,,,,,,
2016/8/17,19:00:00,,,,,,,,,,,,,
2016/8/17,20:00:00,,,,,,,,,,,,,
2016/8/17,21:00:00,,,,,,,,,,,,,